Fortuna, CA

2:29 PM PST on December 07, 2019 (GMT -0800)
Rohnerville

Weather History for KFOT - July, 2019

Change the Weather History Date:

Monday, July 29, 2019

  Actual Average (KEKA) Record (KEKA)
Temperature  
Mean Temperature 58 °F -  
Max Temperature 64 °F 62 °F 75 °F (2015)
Min Temperature 53 °F 53 °F 47 °F (1904)
Degree Days  
Heating Degree Days 6    
Growing Degree Days 8 (Base 50)    
Moisture  
Dew Point 55 °F    
Average Humidity 88    
Maximum Humidity 100    
Minimum Humidity 73    
Precipitation  
Precipitation 0.00 in - - ()
Sea Level Pressure  
Sea Level Pressure 30.05 in    
Wind  
Wind Speed 9 mph (WNW)    
Max Wind Speed 18 mph    
Max Gust Speed 24 mph    
Visibility 8 miles    
Events      
Averages and records for this station are not official NWS values.
T = Trace of Precipitation, MM = Missing Value Source: NWS Daily Summary

Daily Weather History Graph

Daily Weather History Graph

Search for Another Location

Airport or City:

Astronomy

Jul. 29, 2019 Rise Set
Actual Time 6:10 AM PDT 8:34 PM PDT
Civil Twilight 5:39 AM PDT 9:05 PM PDT
Nautical Twilight 5:01 AM PDT 9:43 PM PDT
Astronomical Twilight 4:18 AM PDT 10:26 PM PDT
Moon 3:27 AM PDT (7/29) 6:44 PM PDT (7/29)
Length of Visible Light 15h 25m
Length of Day
14h 24m
Waning Crescent, 8% of the Moon is Illuminated
Jul 29
Waning Crescent
Jul 31
New
Aug 7
First Quarter
Aug 15
Full
Aug 23
Last Quarter

Hourly Weather History & Observations

Time (PDT) Temp. Dew Point Humidity Pressure Visibility Wind Dir Wind Speed Gust Speed Precip Events Conditions
5:10 AM 53.6 °F 53.6 °F 100% 30.03 in 3.0 mi WNW 9.2 mph - N/A   Overcast
5:30 AM 53.6 °F 53.6 °F 100% 30.03 in 1.8 mi West 8.1 mph - N/A   Overcast
5:50 AM 53.6 °F 53.6 °F 100% 30.02 in 0.5 mi West 6.9 mph - N/A   Overcast
6:10 AM 53.6 °F 51.8 °F 94% 30.03 in 0.5 mi WNW 6.9 mph - N/A   Overcast
6:30 AM 53.6 °F 51.8 °F 94% 30.03 in 0.2 mi West 4.6 mph - N/A   Overcast
6:50 AM 53.6 °F 53.6 °F 100% 30.03 in 0.2 mi West 5.8 mph - N/A   Overcast
7:10 AM 53.6 °F 53.6 °F 100% 30.04 in 0.2 mi WNW 4.6 mph - N/A   Overcast
7:30 AM 53.6 °F 53.6 °F 100% 30.04 in 0.5 mi WNW 6.9 mph - N/A   Overcast
7:50 AM 53.6 °F 53.6 °F 100% 30.04 in 0.5 mi NW 4.6 mph - N/A   Overcast
8:10 AM 53.6 °F 53.6 °F 100% 30.04 in 1.0 mi WNW 5.8 mph - N/A   Overcast
8:30 AM 53.6 °F 53.6 °F 100% 30.05 in 2.0 mi NW 5.8 mph - N/A   Overcast
8:50 AM 53.6 °F 53.6 °F 100% 30.05 in 1.2 mi WNW 4.6 mph - N/A   Overcast
9:10 AM 55.4 °F 53.6 °F 94% 30.05 in 2.5 mi WNW 6.9 mph - N/A   Overcast
9:30 AM 55.4 °F 55.4 °F 100% 30.05 in 5.0 mi NNW 5.8 mph - N/A   Mostly Cloudy
9:50 AM 55.4 °F 55.4 °F 100% 30.05 in 8.0 mi WNW 8.1 mph - N/A   Mostly Cloudy
10:10 AM 57.2 °F 55.4 °F 94% 30.06 in 8.0 mi WNW 6.9 mph - N/A   Scattered Clouds
10:30 AM 57.2 °F 53.6 °F 88% 30.06 in 9.0 mi WNW 9.2 mph - N/A   Mostly Cloudy
10:50 AM 57.2 °F 53.6 °F 88% 30.07 in 9.0 mi WNW 9.2 mph - N/A   Mostly Cloudy
11:10 AM 59.0 °F 55.4 °F 88% 30.07 in 9.0 mi WNW 9.2 mph - N/A   Mostly Cloudy
11:30 AM 59.0 °F 55.4 °F 88% 30.06 in 9.0 mi West 10.4 mph - N/A   Scattered Clouds
11:50 AM 59.0 °F 55.4 °F 88% 30.06 in 9.0 mi WNW 8.1 mph - N/A   Scattered Clouds
12:10 PM 59.0 °F 55.4 °F 88% 30.07 in 9.0 mi WNW 10.4 mph - N/A   Mostly Cloudy
12:30 PM 59.0 °F 55.4 °F 88% 30.07 in 10.0 mi West 10.4 mph - N/A   Mostly Cloudy
12:50 PM 62.6 °F 55.4 °F 77% 30.07 in 10.0 mi West 12.7 mph 17.3 mph N/A   Mostly Cloudy
1:10 PM 62.6 °F 55.4 °F 77% 30.07 in 10.0 mi West 12.7 mph - N/A   Overcast
1:30 PM 64.4 °F 55.4 °F 73% 30.06 in 10.0 mi West 12.7 mph 18.4 mph N/A   Overcast
1:50 PM 64.4 °F 55.4 °F 73% 30.06 in 10.0 mi West 15.0 mph 19.6 mph N/A   Mostly Cloudy
2:10 PM 64.4 °F 55.4 °F 73% 30.06 in 10.0 mi West 16.1 mph - N/A   Overcast
2:30 PM 64.4 °F 55.4 °F 73% 30.06 in 10.0 mi West 16.1 mph 21.9 mph N/A   Mostly Cloudy
2:50 PM 64.4 °F 55.4 °F 73% 30.06 in 10.0 mi West 16.1 mph 21.9 mph N/A   Mostly Cloudy
3:10 PM 64.4 °F 55.4 °F 73% 30.06 in 10.0 mi West 18.4 mph 23.0 mph N/A   Mostly Cloudy
3:30 PM 62.6 °F 55.4 °F 77% 30.06 in 10.0 mi West 16.1 mph 24.2 mph N/A   Overcast
3:50 PM 62.6 °F 55.4 °F 77% 30.05 in 10.0 mi West 16.1 mph 19.6 mph N/A   Mostly Cloudy
4:10 PM 64.4 °F 55.4 °F 73% 30.05 in 10.0 mi West 15.0 mph 21.9 mph N/A   Mostly Cloudy
4:30 PM 62.6 °F 55.4 °F 77% 30.05 in 10.0 mi West 16.1 mph 23.0 mph N/A   Scattered Clouds
4:50 PM 62.6 °F 55.4 °F 77% 30.05 in 10.0 mi WNW 17.3 mph 23.0 mph N/A   Mostly Cloudy
5:10 PM 60.8 °F 53.6 °F 77% 30.06 in 10.0 mi WNW 13.8 mph - N/A   Overcast
5:30 PM 59.0 °F 55.4 °F 88% 30.06 in 10.0 mi West 15.0 mph - N/A   Overcast
5:50 PM 59.0 °F 55.4 °F 88% 30.06 in 10.0 mi WNW 12.7 mph - N/A   Mostly Cloudy
6:10 PM 59.0 °F 55.4 °F 88% 30.06 in 10.0 mi WNW 10.4 mph - N/A   Overcast
6:50 PM 59.0 °F 53.6 °F 82% 30.05 in 10.0 mi NW 12.7 mph - N/A   Overcast
7:10 PM 59.0 °F 53.6 °F 82% 30.05 in 10.0 mi NW 11.5 mph - N/A   Overcast
7:30 PM 59.0 °F 53.6 °F 82% 30.06 in 10.0 mi NW 8.1 mph - N/A   Overcast
7:50 PM 57.2 °F 53.6 °F 88% 30.06 in 10.0 mi WNW 10.4 mph - N/A   Overcast
8:10 PM 57.2 °F 53.6 °F 88% 30.06 in 10.0 mi WNW 10.4 mph - N/A   Overcast
8:30 PM 57.2 °F 53.6 °F 88% 30.06 in 10.0 mi WNW 9.2 mph - N/A   Overcast
8:50 PM 57.2 °F 53.6 °F 88% 30.06 in 10.0 mi WNW 8.1 mph - N/A   Overcast
9:10 PM 57.2 °F 55.4 °F 94% 30.06 in 10.0 mi WNW 6.9 mph - N/A   Overcast
9:30 PM 57.2 °F 55.4 °F 94% 30.07 in 10.0 mi WNW 5.8 mph - N/A   Overcast
9:50 PM 57.2 °F 55.4 °F 94% 30.07 in 10.0 mi West 6.9 mph - N/A   Overcast
10:10 PM 57.2 °F 55.4 °F 94% 30.07 in 10.0 mi WNW 8.1 mph - N/A   Overcast
10:30 PM 57.2 °F 55.4 °F 94% 30.06 in 10.0 mi WNW 5.8 mph - N/A   Overcast
10:50 PM 57.2 °F 55.4 °F 94% 30.06 in 10.0 mi WNW 9.2 mph - N/A   Overcast
11:10 PM 57.2 °F 55.4 °F 94% 30.05 in 9.0 mi West 8.1 mph - N/A   Overcast
11:30 PM 57.2 °F 55.4 °F 94% 30.05 in 10.0 mi West 6.9 mph - N/A   Overcast
11:50 PM 57.2 °F 55.4 °F 94% 30.05 in 10.0 mi WNW 8.1 mph - N/A   Overcast